Wind_Speed
1 1 3 3 4 6 6 8 10 12 16 13 16 16 9 5 5 5 1 2 4 7 7 7 5 4 8 7 6 6 7 7 7 4 3 3 3 2 2 2 3 3 3
3 4 6 6 5 7 8 10 10 10 13 13 17 18 11 6 3 3 1 3 3 6 8 8 7 9 9 7 8 6 8 7 5 3 4 3 4 3 3 3 3 3 3
5 7 7 5 5 6 8 11 9 10 8 11 17 15 8 7 5 1 3 4 4 6 8 8 8 8 9 10 9 9 8 5 6 3 4 4 5 4 3 4 4 4 4
8 8 6 7 8 11 8 10 9 8 7 10 12 10 5 6 5 4 3 4 5 6 8 8 8 9 9 11 12 12 9 6 8 5 4 4 5 6 5 4 4 4 4
8 8 8 8 9 10 10 9 7 9 10 11 11 4 2 5 6 2 1 4 5 6 6 8 9 9 10 10 10 11 11 10 11 11 13 10 7 7 6 5 6 6 6
7 9 10 9 10 10 8 7 10 12 12 12 10 4 1 1 5 4 4 4 3 2 4 4 8 8 10 12 13 12 13 13 14 14 15 15 13 12 9 8 8 8 8
10 12 12 8 7 6 7 10 13 14 14 13 10 6 3 2 4 2 6 5 2 1 3 5 6 6 8 9 11 13 14 15 15 15 17 17 16 16 16 15 14 12 11
13 13 9 6 3 7 7 9 11 12 13 14 13 8 6 7 6 3 5 5 5 5 4 4 4 5 7 10 12 11 12 13 16 17 17 17 17 17 17 16 17 17 16
11 7 2 4 6 6 6 8 12 14 16 14 12 11 8 6 6 6 6 7 4 8 6 5 5 5 7 9 12 14 15 15 15 16 18 20 21 23 23 22 21 21 20
7 6 7 6 7 6 7 10 13 15 17 16 12 10 10 8 10 8 8 10 10 9 3 8 9 8 9 10 11 13 13 14 14 15 16 17 19 20 22 23 24 24 25
10 10 9 8 7 6 7 9 12 20 22 19 8 10 9 8 10 11 12 12 11 8 8 9 8 11 9 11 12 12 13 14 13 14 14 15 17 18 20 21 22 23 22
14 12 11 9 5 4 5 7 6 15 24 18 11 12 13 13 11 11 11 11 13 14 12 6 8 7 11 10 8 10 10 12 13 14 15 16 17 18 19 21 22 23 23
13 13 12 9 6 3 1 6 10 14 19 25 20 14 13 14 16 14 13 13 12 11 10 13 7 6 6 6 6 7 9 10 10 12 13 15 16 17 19 21 22 24 26
15 15 12 10 8 7 6 6 10 14 16 20 22 23 19 16 16 18 17 15 12 11 10 8 8 7 4 2 4 6 9 11 13 15 16 17 19 20 19 20 24 25 27
17 17 15 14 12 10 9 9 12 15 17 18 21 22 23 20 17 16 16 16 14 12 9 10 8 7 9 7 6 7 7 9 12 14 15 18 20 21 23 24 26 26 28
19 16 15 14 12 10 13 13 15 18 22 22 22 22 23 23 21 17 14 17 14 12 12 12 10 9 10 12 15 14 14 14 13 15 19 20 20 22 24 26 26 26 27
20 17 16 18 17 18 17 17 19 21 23 25 25 23 21 21 23 19 15 17 16 13 13 13 11 11 10 13 12 16 20 23 21 20 19 20 20 21 22 26 28 27 26
18 17 16 16 19 21 22 21 22 24 26 28 28 25 19 17 24 19 15 17 20 16 16 18 15 13 14 15 19 23 23 25 26 26 26 25 23 23 27 26 27 29 28
18 18 17 15 15 20 21 23 24 27 29 30 31 30 22 18 16 19 19 15 20 21 19 20 17 17 22 23 24 26 28 27 27 26 28 30 30 31 31 30 29 31 34
20 19 18 19 20 22 23 24 27 29 30 32 31 31 24 22 19 18 19 18 19 23 20 24 27 26 24 23 30 31 28 26 28 27 30 31 32 33 32 34 36 37 36
24 23 23 25 25 26 25 24 26 27 31 32 31 30 26 23 21 21 20 17 21 24 23 27 25 24 25 27 32 31 29 27 28 32 32 33 34 35 36 36 35 34 34
26 27 29 30 29 28 25 24 25 25 29 32 34 30 25 24 24 23 20 17 20 24 27 24 26 28 27 30 31 31 30 32 34 31 35 32 34 33 32 31 29 30 31
28 29 29 29 29 28 28 26 23 27 26 33 33 26 24 24 27 22 19 19 21 21 25 26 27 28 29 29 29 32 32 34 34 32 37 36 33 35 31 31 30 31 33
31 31 31 31 26 31 27 25 23 27 29 33 29 24 24 23 20 21 22 21 22 24 27 28 28 30 32 29 32 35 36 37 37 34 35 40 32 31 29 29 29 32 33
35 33 31 29 23 18 22 25 29 29 33 33 30 27 19 18 19 21 23 22 19 17 21 26 30 32 31 32 34 36 36 39 38 34 31 35 30 31 32 31 30 32 34
31 29 25 21 34 27 21 25 30 29 33 30 23 17 16 18 20 19 25 19 19 20 25 30 32 33 34 36 36 37 37 35 34 34 24 29 30 33 37 34 30 28 30
Wind_Direction
88 273 268 309 310 319 329 354 341 343 357 7 0 2 10 359 355 17 105 185 191 170 174 165 162 175 175 174 164 151 152 147 149 166 221 243 230 211 216 232 241 260 242
228 225 242 288 321 330 346 349 348 351 336 342 343 341 353 359 2 42 152 172 191 173 183 184 178 168 173 177 177 169 162 151 151 178 210 222 233 226 232 232 243 247 258
239 250 274 293 320 318 319 339 338 338 330 327 330 329 344 350 344 88 139 168 201 190 191 192 191 191 195 197 194 189 190 227 240 211 224 227 239 236 230 248 246 244 252
250 255 267 278 296 308 305 327 328 324 315 308 313 325 343 354 360 36 134 180 213 205 198 210 201 206 207 208 209 211 227 211 190 202 210 249 260 262 257 258 261 264 253
250 261 271 281 292 311 324 318 323 341 344 335 331 323 328 33 34 16 161 125 197 231 217 215 215 220 225 230 228 228 226 218 216 228 236 248 245 249 251 256 264 266 270
250 261 276 287 300 321 320 11 22 13 359 345 338 314 240 78 70 17 6 105 154 171 226 246 227 226 229 234 237 236 237 230 226 231 237 245 242 238 239 250 255 252 252
244 261 280 290 310 10 32 26 23 17 5 3 348 344 264 209 117 21 8 8 329 194 209 223 221 223 229 233 240 242 244 245 247 247 249 254 254 254 254 256 258 258 256
252 255 269 268 59 64 41 29 29 21 14 14 4 357 337 322 322 328 15 14 332 317 277 241 217 234 247 242 248 251 257 252 248 247 249 252 256 256 256 256 259 262 260
241 250 173 112 89 75 58 37 32 22 12 5 9 6 359 333 304 317 352 336 355 318 302 286 271 255 245 244 247 251 251 254 254 257 259 259 258 258 260 261 259 258 258
211 196 145 125 118 93 58 42 37 29 20 6 349 1 6 346 329 318 309 310 318 333 234 312 288 272 256 252 257 261 260 257 257 258 263 266 266 266 265 264 262 259 257
187 176 146 144 120 96 54 35 41 29 14 3 358 353 352 346 337 328 321 314 311 314 295 304 279 285 281 267 267 264 266 269 267 268 266 264 268 269 269 268 267 264 261
187 169 156 153 139 113 60 30 20 9 18 31 22 11 352 342 333 324 317 312 308 308 312 312 294 293 287 291 282 267 270 270 272 274 274 273 270 267 266 268 267 266 263
177 160 155 165 187 196 199 5 0 3 6 26 27 10 5 351 335 319 306 306 299 298 301 307 314 315 331 273 284 269 272 260 258 266 274 278 277 275 273 270 268 267 266
174 167 174 189 213 228 246 308 337 337 344 357 9 8 2 358 349 331 308 295 279 284 301 294 308 309 299 294 275 257 260 264 265 268 276 277 279 277 275 278 275 270 267
177 171 185 204 227 237 255 284 312 313 323 333 348 354 357 353 350 338 310 299 288 295 293 277 288 281 298 295 294 303 289 271 265 268 275 278 276 276 279 278 278 275 269
185 183 196 212 231 250 261 275 294 307 310 318 326 338 345 345 347 341 317 299 281 300 291 263 274 290 309 308 327 334 329 322 303 288 285 281 282 285 286 283 278 272 271
190 195 208 223 236 251 261 275 289 296 299 304 310 318 334 342 328 338 316 303 289 292 302 297 289 289 306 293 308 317 309 309 309 301 288 279 278 270 277 278 276 277 270
197 203 214 225 235 247 260 274 285 295 296 297 298 304 313 332 340 325 311 302 294 281 285 291 280 299 302 312 295 295 295 289 294 294 288 283 284 280 278 270 267 271 280
201 205 221 234 246 258 267 278 286 291 294 294 295 297 304 314 331 327 306 288 288 279 284 292 285 291 291 295 300 302 292 282 283 277 279 282 283 280 277 274 273 272 268
222 230 242 254 264 270 275 281 288 289 292 292 290 290 295 302 322 318 303 275 281 280 277 286 278 282 292 291 295 298 294 283 278 284 284 287 281 277 279 281 280 278 271
231 240 252 262 268 272 279 284 287 288 287 287 287 284 292 298 318 307 296 257 262 273 273 278 279 286 282 292 297 297 294 292 290 286 287 286 284 285 286 284 282 278 275
237 246 254 262 269 277 282 282 284 286 284 287 287 284 290 297 305 300 296 269 260 266 280 272 275 282 292 298 296 292 295 293 290 290 286 287 284 284 284 279 279 279 279
240 247 255 263 270 278 276 277 277 281 277 282 285 291 293 298 298 299 288 280 277 276 279 276 273 279 292 297 289 294 292 289 291 292 291 291 289 287 283 282 283 284 282
237 245 253 264 276 273 275 272 271 270 274 277 288 295 290 286 283 277 281 283 277 276 279 275 278 286 292 294 295 295 294 294 293 294 293 292 286 280 279 279 282 283 281
240 246 253 264 304 265 262 271 272 271 277 284 289 291 289 284 274 270 273 266 265 271 274 278 282 284 288 291 292 290 294 294 297 295 295 285 287 288 285 283 282 284 283
243 245 253 255 271 274 263 262 266 271 279 285 285 279 278 276 271 270 275 268 272 275 276 279 282 284 286 292 292 292 294 293 293 295 288 285 290 293 289 289 286 287 286
Height
3219 3219 3219 3219 3219 3218 3217 3215 3214 3212 3210 3208 3207 3206 3205 3202 3201 3201 3201 3201 3203 3205 3207 3207 3207 3209 3210 3211 3212 3212 3213 3213 3213 3214 3216 3216 3216 3216 3217 3217 3217 3218 3217
3218 3219 3218 3218 3218 3217 3215 3214 3213 3211 3210 3208 3206 3204 3203 3202 3201 3201 3201 3201 3202 3204 3206 3207 3208 3208 3209 3211 3212 3213 3213 3213 3214 3215 3215 3215 3216 3216 3216 3217 3217 3217 3217
3218 3218 3218 3217 3216 3215 3215 3214 3213 3211 3209 3207 3205 3203 3201 3200 3200 3200 3200 3200 3201 3203 3204 3206 3207 3208 3209 3209 3211 3212 3212 3213 3214 3214 3215 3215 3215 3216 3215 3216 3216 3216 3217
3216 3217 3218 3217 3216 3215 3215 3214 3211 3210 3208 3207 3205 3202 3201 3200 3199 3199 3199 3199 3199 3201 3202 3203 3206 3207 3207 3207 3208 3209 3212 3212 3212 3213 3213 3214 3215 3215 3215 3215 3216 3216 3216
3215 3215 3215 3215 3214 3214 3213 3212 3211 3209 3207 3204 3203 3202 3201 3200 3199 3199 3198 3199 3199 3199 3201 3202 3204 3204 3206 3206 3207 3208 3209 3210 3212 3212 3212 3213 3213 3213 3214 3214 3215 3215 3215
3213 3212 3213 3213 3212 3212 3212 3211 3209 3208 3206 3204 3203 3202 3201 3200 3200 3199 3199 3199 3199 3199 3200 3200 3201 3202 3204 3205 3205 3206 3207 3207 3208 3209 3209 3210 3211 3210 3211 3212 3213 3212 3212
3211 3211 3211 3212 3212 3211 3211 3210 3209 3208 3207 3205 3203 3203 3201 3200 3200 3199 3199 3198 3199 3199 3199 3199 3200 3200 3201 3202 3203 3203 3203 3204 3205 3207 3208 3208 3208 3209 3209 3209 3210 3210 3211
3208 3209 3209 3210 3211 3211 3212 3211 3210 3209 3208 3206 3205 3202 3201 3200 3199 3198 3198 3198 3198 3199 3198 3198 3198 3198 3199 3199 3200 3200 3201 3201 3202 3203 3204 3204 3204 3205 3205 3206 3206 3207 3208
3206 3207 3208 3208 3210 3211 3211 3211 3210 3210 3208 3207 3205 3204 3202 3201 3199 3198 3198 3197 3197 3197 3196 3196 3196 3196 3196 3196 3196 3196 3196 3197 3197 3198 3199 3199 3199 3200 3201 3201 3202 3202 3204
3203 3205 3206 3209 3210 3211 3211 3211 3209 3208 3207 3205 3204 3203 3201 3201 3199 3198 3197 3198 3198 3196 3196 3195 3193 3194 3194 3194 3194 3194 3194 3194 3194 3194 3195 3195 3195 3195 3196 3196 3197 3197 3198
3202 3204 3206 3208 3209 3210 3210 3209 3209 3208 3206 3202 3201 3201 3200 3199 3198 3197 3196 3196 3195 3195 3195 3194 3193 3191 3192 3192 3191 3191 3191 3191 3192 3191 3191 3191 3191 3191 3191 3191 3192 3192 3192
3200 3203 3204 3206 3207 3209 3209 3209 3208 3207 3205 3202 3201 3201 3200 3199 3198 3197 3195 3194 3193 3192 3191 3192 3190 3190 3189 3189 3189 3188 3188 3188 3188 3188 3187 3187 3186 3186 3186 3186 3186 3186 3186
3198 3201 3202 3203 3205 3207 3207 3207 3206 3206 3204 3202 3201 3200 3199 3198 3196 3195 3193 3191 3190 3190 3189 3187 3188 3188 3187 3186 3185 3185 3184 3184 3183 3183 3182 3181 3181 3180 3180 3180 3180 3180 3180
3196 3198 3200 3201 3202 3204 3205 3205 3205 3204 3203 3202 3200 3199 3198 3196 3194 3192 3191 3190 3189 3188 3187 3187 3186 3186 3186 3185 3184 3183 3183 3182 3181 3179 3178 3177 3176 3175 3174 3174 3174 3173 3173
3193 3195 3196 3198 3200 3201 3202 3202 3202 3201 3201 3200 3198 3197 3195 3193 3191 3189 3188 3187 3186 3185 3185 3184 3184 3183 3183 3183 3182 3181 3180 3179 3178 3176 3175 3173 3172 3170 3169 3167 3166 3166 3167
3190 3191 3193 3195 3197 3198 3199 3199 3199 3199 3198 3197 3196 3194 3192 3191 3188 3186 3185 3184 3184 3183 3182 3182 3182 3181 3180 3179 3178 3178 3177 3176 3174 3172 3170 3168 3165 3164 3162 3161 3160 3159 3159
3185 3187 3189 3191 3192 3194 3195 3196 3196 3196 3195 3193 3192 3191 3189 3187 3185 3182 3181 3181 3181 3180 3179 3179 3180 3179 3178 3177 3175 3174 3172 3171 3170 3168 3165 3163 3160 3159 3157 3155 3153 3151 3151
3180 3182 3184 3186 3188 3189 3190 3192 3192 3191 3190 3188 3187 3187 3186 3183 3180 3179 3177 3176 3176 3176 3176 3175 3175 3174 3174 3173 3171 3169 3167 3165 3163 3161 3159 3157 3155 3153 3151 3149 3148 3147 3144
3174 3176 3178 3180 3183 3184 3186 3187 3186 3185 3184 3183 3181 3180 3180 3178 3176 3176 3174 3172 3173 3172 3171 3171 3170 3170 3169 3167 3164 3162 3160 3157 3155 3153 3151 3149 3147 3145 3141 3140 3139 3138 3137
3168 3170 3172 3174 3177 3179 3181 3180 3179 3178 3177 3176 3175 3173 3174 3173 3170 3168 3168 3167 3167 3167 3166 3165 3164 3164 3163 3160 3155 3152 3150 3148 3147 3144 3142 3140 3139 3136 3134 3132 3130 3129 3128
3163 3165 3166 3169 3171 3172 3174 3173 3173 3171 3169 3168 3168 3167 3167 3166 3164 3162 3163 3161 3161 3161 3161 3159 3158 3157 3155 3152 3147 3143 3141 3140 3139 3136 3134 3133 3129 3127 3125 3122 3120 3118 3115
3158 3159 3160 3162 3163 3165 3166 3165 3165 3165 3162 3160 3160 3159 3160 3160 3158 3156 3156 3154 3154 3154 3154 3152 3150 3148 3147 3144 3140 3137 3134 3132 3129 3129 3123 3124 3118 3117 3114 3111 3110 3108 3107
3151 3152 3154 3155 3159 3160 3159 3157 3158 3157 3156 3154 3152 3152 3151 3151 3151 3149 3150 3148 3148 3147 3146 3145 3144 3143 3140 3138 3134 3131 3127 3123 3121 3120 3113 3111 3110 3105 3103 3102 3101 3098 3096
3144 3146 3148 3150 3154 3146 3149 3153 3151 3149 3149 3147 3146 3145 3144 3145 3144 3144 3142 3141 3141 3140 3139 3137 3136 3135 3132 3129 3125 3122 3118 3115 3112 3111 3105 3098 3101 3097 3095 3093 3093 3090 3087
3136 3140 3142 3144 3143 3129 3145 3146 3143 3141 3140 3140 3139 3138 3138 3138 3138 3138 3136 3135 3135 3135 3133 3132 3130 3127 3123 3121 3118 3114 3111 3106 3103 3102 3099 3090 3090 3087 3085 3084 3084 3081 3076
3130 3131 3134 3135 3136 3139 3137 3138 3135 3133 3133 3131 3130 3131 3131 3131 3131 3131 3130 3129 3129 3129 3126 3124 3122 3119 3116 3113 3109 3105 3102 3098 3094 3090 3090 3084 3082 3078 3072 3072 3073 3071 3067